Simultaneous Nadir Overpasses (SNOs) Predictions

Prediction of SNOs between FY3D and AQUA Satellite Orbit:

Table of predicted SNOs for the next 14.0 days since TLE Epoch: 9/10/2022
Index Date (FY3D) Time (FY3D) Lat,Lon (FY3D) SZA (FY3D ) Date (AQUA) Time (AQUA) Lat,Lon (AQUA) SZA (AQUA ) Distance(km) Time Diff (sec)
1 09/11/2022 17:33:40 76.86, -96.59 72.73 09/11/2022 17:34:19 76.86, -96.64 72.73 1.48 39
2 09/11/2022 18:24:08 -76.07, 73.68 108.17 09/11/2022 18:23:28 -76.07, 73.67 108.16 0.31 40
3 09/14/2022 08:11:37 80.42, 19.23 78.95 09/14/2022 08:12:50 80.69, 20.25 79.04 35.87 73
4 09/14/2022 09:00:34 -76.52,-147.01 106.66 09/14/2022 09:00:31 -76.52,-147.02 106.66 0.21 3
5 09/16/2022 23:36:58 -76.84, -7.29 105.31 09/16/2022 23:37:32 -76.84, -7.36 105.30 1.92 34
6 09/17/2022 00:27:26 76.06, 162.96 73.82 09/17/2022 00:26:42 76.06, 162.92 73.83 1.21 44
7 09/19/2022 14:13:26 -77.32, 131.61 103.74 09/19/2022 14:14:36 -77.32, 131.63 103.76 0.57 70
8 09/19/2022 15:03:55 76.61, -58.12 75.44 09/19/2022 15:03:47 76.61, -58.08 75.44 1.04 8
9 09/22/2022 05:40:21 77.02, 81.18 76.92 09/22/2022 05:40:49 77.02, 81.23 76.91 1.40 28



Historial Predications of SNOs between FY3D and AQUA
